Regional Weather Roundup
Issued by NWS Cleveland, OH

Home | Current Version | Previous Version | Graphics & Text | Print | Product List | Glossary On
Versions: 1 2 3 4 5 6 7 8 9 10 11 12 13 14 15 16 17 18 19 20 21 22 23 24 25 26 27 28 29 30 31 32 33 34 35 36 37 38 39 40 41 42 43 44 45 46 47 48 49 50
000
ASUS41 KCLE 211702
RWRCLE
OHIO REGIONAL WEATHER ROUNDUP
NATIONAL WEATHER SERVICE CLEVELAND, OH
100 PM EDT TUE OCT 21 2014

NOTE: "FAIR" INDICATES FEW OR NO CLOUDS BELOW 12,000 FEET WITH NO
SIGNIFICANT WEATHER AND/OR OBSTRUCTIONS TO VISIBILITY.

OHZ001>008-015>018-024>027-034-035-043-044-211800-
   NORTHWEST OHIO

CITY           SKY/WX    TMP DP  RH WIND       PRES   REMARKS
DEFIANCE       CLOUDY    52  41  66 N15       30.07R
FINDLAY        CLOUDY    51  45  79 N12       30.02R
TOLEDO EXPRESS CLOUDY    49  41  74 N13       30.05R
TOLEDO EXEC    CLOUDY    50  40  68 N17       30.05R
LIMA           CLOUDY    50  44  80 N12       30.04R
$$

OHZ009>014-019>023-028>033-038-089-211800-
   NORTHEAST OHIO

CITY           SKY/WX    TMP DP  RH WIND       PRES   REMARKS
CLE-HOPKINS    CLOUDY    49  44  83 N20G26    29.99R
CLE-LAKEFRONT  CLOUDY    51  44  77 NW21G28   29.95R
CUY CO. ARPT   CLOUDY    52  46  82 NW18      29.95R
LORAIN-ELYRIA  CLOUDY    48  44  86 N12G21    29.98R
ASHTABULA      CLOUDY    49  44  83 NW10      29.92S
AKRON-CANTON   LGT RAIN  50  45  83 N14G21    29.93R
WOOSTER        CLOUDY    50  45  83 N17G23    29.96R
MANSFIELD      CLOUDY    47  45  93 N15       29.98R FOG
YOUNGSTOWN     LGT RAIN  50  47  89 NW16      29.90S FOG
$$

OHZ042-051>053-060>062-070>072-077>081-211800-
  SOUTHWEST OHIO

CITY           SKY/WX    TMP DP  RH WIND       PRES   REMARKS
CINC-COVINGTON CLOUDY    55  36  48 NW21      30.04S
CINC-LUNKEN    CLOUDY    54  40  59 N13       30.05S
HAMILTON       CLOUDY    53  42  66 NW13      30.06R
DAYTON         CLOUDY    51  45  79 N17       30.05R
WRIGHT-PAT AFB NOT AVBL
DAYTON GENERAL CLOUDY    51  42  71 N14       30.04R
WILMINGTON     LGT RAIN  50  41  71 NW13      30.03R
$$

OHZ036-037-039>041-045>050-054>059-063>069-073>076-082>088-211800-
  CENTRAL AND SOUTHEAST OHIO

CITY           SKY/WX    TMP DP  RH WIND       PRES   REMARKS
COLUMBUS       CLOUDY    51  44  77 NW14      29.98S
OSU AIRPORT    CLOUDY    52  44  74 NW13G18   29.99R
BOLTON FIELD   CLOUDY    50  46  87 NW14      30.00S
RICKENBACK AFB NOT AVBL
NEWARK         CLOUDY    51  45  79 NW8       29.97R
MARION         CLOUDY    49  45  86 N10       30.00S
LANCASTER      CLOUDY    50  46  86 NW8       29.99R
ZANESVILLE     CLOUDY    51  45  79 N12       29.95R
NEW PHILLY     CLOUDY    53  47  79 N7        29.93F
$$



USA.gov is the U.S. government's official web portal to all federal, state and local government web resources and services.